Location: Wiler
(46.4041°N, 7.7840°E)
Time: 23:00:21
(UTC+00:00)

Cosmos 1726 Rocket - Pass Details

Date: 09 April 2020
Orbit: 602 x 631 km, 82.5° (Epoch: 27 May)

Event Time Altitude Azimuth Distance (km) Brightness Sun altitude
Rises 18:55:09 0° 181° (S) 2,884 6.8 -8.4°
Reaches altitude 10° 18:57:21 10° 179° (S) 1,987 5.9 -8.8°
Maximum altitude 19:01:45 71° 96° (E) 666 3.5 -9.5°
Drops below altitude 10° 19:06:12 10° 13° (NNE) 2,017 6.3 -10.2°
Sets 19:08:27 0° 12° (NNE) 2,932 7.2 -10.6°
